Powrót do katalogu

STARLINK-3967

AktywnyŁącznośćVLEO
NORAD 52636·PAYLOAD·🇺🇸 United States

Wystrzelony May 14, 2022 z Cape Canaveral Space Force Station

Loading…

Następne Przeloty (najbliższe 24 godziny)

TLE

ŚwieżeSource: CelesTrak SupGP

Epoka: Sep 14, 2026, 21:53 UTC

1 52636C 22052AQ  26257.91229167 -.00018041  00000+0 -51626-3 0  2577
2 52636  53.1574 129.2555 0001314  82.8768  43.8092 15.35402674    10

Śledź STARLINK-3967 w czasie rzeczywistym z AllMySat

Download on the App Store